AFR9 KJFK-LFPG

Flight info

Callsign AFR9
Flight time N/A
Altitude 37000
Route BETTE DCT ACK DCT KANNI N97B SUPRY/M083F380 NATU XETBO/N0478F390 DCT UNLID/M084F390 DCT LULOX/N0483F390 DCT NAKID DCT ANNET UM25 INGOR/N0451F280 UM25 LUKIP
Aircraft B772/H-SDE2E3FGHIJ5LORVWXY/LB1D1

Departure

Time N/A
Airport John F. Kennedy International Airport (KJFK)

Arrival

Time 2026-05-05 10:21
Airport Charles de Gaulle International Airport (LFPG)
Time Latitude Longitude Altitude Speed Heading
2026-05-05 09:32 49.76523 -4.86317 38982 ft 480 kts 107°
2026-05-05 09:32 49.75500 -4.81398 38980 ft 480 kts 107°
2026-05-05 09:33 49.73463 -4.71640 38983 ft 480 kts 107°
2026-05-05 09:33 49.71473 -4.61834 38974 ft 478 kts 102°
2026-05-05 09:34 49.70383 -4.51761 38978 ft 477 kts 97°
2026-05-05 09:34 49.69402 -4.41739 38980 ft 477 kts 98°
2026-05-05 09:35 49.68388 -4.31622 38979 ft 478 kts 98°
2026-05-05 09:35 49.66836 -4.16436 38976 ft 478 kts 99°
2026-05-05 09:36 49.65791 -4.06366 38977 ft 477 kts 99°
2026-05-05 09:36 49.64799 -3.96250 38973 ft 475 kts 95°
2026-05-05 09:37 49.64223 -3.86144 38966 ft 476 kts 95°
2026-05-05 09:37 49.63631 -3.75983 38967 ft 478 kts 95°
2026-05-05 09:38 49.63014 -3.65828 38963 ft 478 kts 95°
2026-05-05 09:38 49.62378 -3.55646 38962 ft 479 kts 95°
2026-05-05 09:39 49.61726 -3.45436 38960 ft 478 kts 95°
2026-05-05 09:39 49.61068 -3.35293 38958 ft 479 kts 95°
2026-05-05 09:40 49.60395 -3.25091 38956 ft 480 kts 96°
2026-05-05 09:40 49.59710 -3.14845 38955 ft 480 kts 96°
2026-05-05 09:41 49.59021 -3.04702 38954 ft 480 kts 96°
2026-05-05 09:41 49.58320 -2.94501 38956 ft 481 kts 96°
2026-05-05 09:42 49.57605 -2.84231 38966 ft 480 kts 96°
2026-05-05 09:42 49.56888 -2.74075 38953 ft 481 kts 96°
2026-05-05 09:43 49.56159 -2.63869 38952 ft 481 kts 96°
2026-05-05 09:43 49.55418 -2.53628 38950 ft 482 kts 96°
2026-05-05 09:44 49.54670 -2.43418 38950 ft 482 kts 96°
2026-05-05 09:44 49.53913 -2.33221 38951 ft 481 kts 97°
2026-05-05 09:45 49.53148 -2.23024 38948 ft 481 kts 97°
2026-05-05 09:45 49.52374 -2.12843 38944 ft 481 kts 97°
2026-05-05 09:46 49.51593 -2.02688 38942 ft 481 kts 97°
2026-05-05 09:46 49.50799 -1.92476 38943 ft 481 kts 97°
2026-05-05 09:47 49.49996 -1.82270 38936 ft 482 kts 97°
2026-05-05 09:47 49.49183 -1.72057 38925 ft 482 kts 97°
2026-05-05 09:48 49.48362 -1.61853 38928 ft 483 kts 97°
2026-05-05 09:48 49.47535 -1.51701 38929 ft 482 kts 97°
2026-05-05 09:49 49.46695 -1.41506 38927 ft 482 kts 98°
2026-05-05 09:49 49.45853 -1.31385 38925 ft 482 kts 98°
2026-05-05 09:50 49.44992 -1.21150 38916 ft 482 kts 98°
2026-05-05 09:50 49.44127 -1.10985 38911 ft 483 kts 98°
2026-05-05 09:51 49.43250 -1.00776 38913 ft 483 kts 98°
2026-05-05 09:51 49.42376 -0.90719 38509 ft 476 kts 99°
2026-05-05 09:52 49.41935 -0.85680 37630 ft 484 kts 99°
2026-05-05 09:52 49.41481 -0.80529 36724 ft 492 kts 99°
2026-05-05 09:52 49.41025 -0.75371 35814 ft 497 kts 99°
2026-05-05 09:52 49.40557 -0.70113 35193 ft 490 kts 99°
2026-05-05 09:53 49.40102 -0.65005 34924 ft 478 kts 99°
2026-05-05 09:53 49.39659 -0.60052 34729 ft 465 kts 100°
2026-05-05 09:53 49.39222 -0.55216 34236 ft 461 kts 100°
2026-05-05 09:53 49.38779 -0.50342 33456 ft 464 kts 100°
2026-05-05 09:54 49.38335 -0.45483 32326 ft 472 kts 99°
2026-05-05 09:54 49.37876 -0.40481 31050 ft 480 kts 99°
2026-05-05 09:54 49.37410 -0.35424 30210 ft 477 kts 99°
2026-05-05 09:54 49.36949 -0.30429 29847 ft 465 kts 100°
2026-05-05 09:55 49.36504 -0.25627 29395 ft 457 kts 100°
2026-05-05 09:55 49.36119 -0.20815 28700 ft 454 kts 97°
2026-05-05 09:55 49.35831 -0.16020 27983 ft 451 kts 97°
2026-05-05 09:55 49.35548 -0.11267 27559 ft 441 kts 97°
2026-05-05 09:56 49.35272 -0.06723 27509 ft 425 kts 97°
2026-05-05 09:56 49.34999 -0.02290 27492 ft 409 kts 97°
2026-05-05 09:56 49.34736 0.01927 27265 ft 398 kts 97°
2026-05-05 09:56 49.34468 0.06138 26737 ft 395 kts 97°
2026-05-05 09:57 49.34201 0.10295 26076 ft 395 kts 97°
2026-05-05 09:57 49.33933 0.14452 25535 ft 392 kts 97°
2026-05-05 09:57 49.33660 0.18630 25024 ft 389 kts 97°
2026-05-05 09:57 49.33396 0.22656 24531 ft 385 kts 97°
2026-05-05 09:58 49.33126 0.26750 23983 ft 383 kts 97°
2026-05-05 09:58 49.32857 0.30787 23471 ft 380 kts 97°
2026-05-05 09:58 49.32592 0.34747 23013 ft 376 kts 97°
2026-05-05 09:58 49.32328 0.38682 22526 ft 373 kts 97°
2026-05-05 09:59 49.32062 0.42618 22010 ft 371 kts 96°
2026-05-05 09:59 49.31794 0.46558 21416 ft 371 kts 96°
2026-05-05 09:59 49.31529 0.50448 20839 ft 370 kts 96°
2026-05-05 09:59 49.31437 0.54340 20407 ft 365 kts 91°
2026-05-05 10:00 49.31430 0.58220 20045 ft 360 kts 90°
2026-05-05 10:00 49.31416 0.62047 19704 ft 361 kts 91°
2026-05-05 10:00 49.31388 0.65858 19355 ft 360 kts 92°
2026-05-05 10:00 49.31353 0.69659 19009 ft 358 kts 92°
2026-05-05 10:01 49.31312 0.73450 18655 ft 356 kts 92°
2026-05-05 10:01 49.31268 0.77224 18290 ft 355 kts 92°
2026-05-05 10:01 49.31222 0.80983 17959 ft 354 kts 92°
2026-05-05 10:01 49.31173 0.84776 17605 ft 352 kts 92°
2026-05-05 10:02 49.31124 0.88461 17260 ft 350 kts 91°
2026-05-05 10:02 49.31074 0.92162 16920 ft 348 kts 92°
2026-05-05 10:02 49.31022 0.95901 16565 ft 346 kts 91°
2026-05-05 10:02 49.30971 0.99515 16230 ft 344 kts 92°
2026-05-05 10:03 49.30917 1.03177 15746 ft 346 kts 91°
2026-05-05 10:03 49.30862 1.06871 15139 ft 347 kts 91°
2026-05-05 10:03 49.30806 1.10539 14637 ft 345 kts 91°
2026-05-05 10:03 49.30750 1.14169 14171 ft 342 kts 91°
2026-05-05 10:04 49.30692 1.17818 13716 ft 339 kts 91°
2026-05-05 10:04 49.30634 1.21408 13258 ft 336 kts 91°
2026-05-05 10:04 49.30576 1.24939 12803 ft 333 kts 91°
2026-05-05 10:04 49.30517 1.28456 12345 ft 331 kts 91°
2026-05-05 10:05 49.30456 1.31982 11884 ft 328 kts 91°
2026-05-05 10:05 49.30397 1.35428 11444 ft 326 kts 90°
2026-05-05 10:05 49.30335 1.38890 10999 ft 323 kts 90°
2026-05-05 10:05 49.30274 1.42290 10551 ft 320 kts 90°
2026-05-05 10:06 49.30212 1.45674 10221 ft 309 kts 90°
2026-05-05 10:06 49.30153 1.48792 10168 ft 284 kts 90°
2026-05-05 10:06 49.30098 1.51726 10121 ft 261 kts 90°
2026-05-05 10:06 49.30047 1.54411 10078 ft 249 kts 90°
2026-05-05 10:07 49.29997 1.57031 9927 ft 248 kts 90°
2026-05-05 10:07 49.29901 1.59765 9599 ft 260 kts 92°
2026-05-05 10:07 49.29767 1.62535 9260 ft 260 kts 92°
2026-05-05 10:07 49.29639 1.65283 8951 ft 260 kts 92°
2026-05-05 10:08 49.29517 1.68017 8651 ft 258 kts 92°
2026-05-05 10:08 49.29395 1.70758 8354 ft 257 kts 92°
2026-05-05 10:08 49.29127 1.73456 8047 ft 258 kts 108°
2026-05-05 10:08 49.28171 1.75779 7743 ft 262 kts 133°
2026-05-05 10:09 49.26654 1.77334 7581 ft 263 kts 149°
2026-05-05 10:09 49.24997 1.78548 7451 ft 267 kts 152°
2026-05-05 10:09 49.23290 1.79708 7276 ft 266 kts 153°
2026-05-05 10:09 49.21589 1.80853 7102 ft 265 kts 152°
2026-05-05 10:10 49.19904 1.81987 6927 ft 264 kts 152°
2026-05-05 10:10 49.18229 1.83115 6753 ft 264 kts 152°
2026-05-05 10:10 49.16557 1.84240 6579 ft 263 kts 153°
2026-05-05 10:10 49.14883 1.85336 6457 ft 256 kts 153°
2026-05-05 10:11 49.13288 1.86373 6428 ft 245 kts 153°
2026-05-05 10:11 49.11742 1.87382 6422 ft 233 kts 152°
2026-05-05 10:11 49.10297 1.88326 6418 ft 225 kts 152°
2026-05-05 10:11 49.08777 1.89328 6434 ft 246 kts 153°
2026-05-05 10:12 49.07174 1.90375 6441 ft 251 kts 153°
2026-05-05 10:12 49.05566 1.91421 6425 ft 252 kts 153°
2026-05-05 10:12 49.03948 1.92475 6430 ft 252 kts 153°
2026-05-05 10:12 49.02340 1.93521 6428 ft 251 kts 153°
2026-05-05 10:13 49.00738 1.94565 6428 ft 252 kts 153°
2026-05-05 10:13 48.99139 1.95684 6383 ft 251 kts 143°
2026-05-05 10:13 48.97957 1.97524 6232 ft 240 kts 115°
2026-05-05 10:13 48.97491 1.99922 6189 ft 236 kts 94°
2026-05-05 10:14 48.97375 2.02410 6129 ft 236 kts 91°
2026-05-05 10:14 48.97280 2.04925 6044 ft 235 kts 91°
2026-05-05 10:14 48.97186 2.07396 5953 ft 234 kts 91°
2026-05-05 10:14 48.97087 2.09860 5730 ft 235 kts 92°
2026-05-05 10:15 48.97020 2.12362 5546 ft 234 kts 89°
2026-05-05 10:15 48.97037 2.14843 5343 ft 233 kts 86°
2026-05-05 10:15 48.97110 2.17271 5169 ft 231 kts 85°
2026-05-05 10:15 48.97216 2.19653 5012 ft 226 kts 84°
2026-05-05 10:16 48.97346 2.22018 4791 ft 224 kts 84°
2026-05-05 10:16 48.97487 2.24334 4509 ft 226 kts 83°
2026-05-05 10:16 48.97634 2.26733 4210 ft 228 kts 83°
2026-05-05 10:16 48.97774 2.29118 3914 ft 230 kts 83°
2026-05-05 10:17 48.97912 2.31534 3610 ft 232 kts 84°
2026-05-05 10:17 48.98049 2.33990 3300 ft 234 kts 84°
2026-05-05 10:17 48.98183 2.36401 2960 ft 229 kts 83°
2026-05-05 10:17 48.98316 2.38760 2668 ft 222 kts 83°
2026-05-05 10:18 48.98443 2.41010 2402 ft 205 kts 83°
2026-05-05 10:18 48.98562 2.43127 2132 ft 188 kts 83°
2026-05-05 10:18 48.98665 2.44965 1901 ft 168 kts 82°
2026-05-05 10:18 48.98759 2.46668 1680 ft 153 kts 82°
2026-05-05 10:19 48.98843 2.48213 1486 ft 143 kts 82°
2026-05-05 10:19 48.98920 2.49658 1291 ft 131 kts 82°
2026-05-05 10:19 48.98992 2.50999 1109 ft 127 kts 82°
2026-05-05 10:19 48.99065 2.52343 922 ft 127 kts 81°
2026-05-05 10:20 48.99133 2.53676 745 ft 127 kts 81°
2026-05-05 10:20 48.99210 2.55004 572 ft 126 kts 81°
2026-05-05 10:20 48.99280 2.56353 394 ft 127 kts 82°
2026-05-05 10:20 48.99349 2.57625 331 ft 105 kts 85°
2026-05-05 10:21 48.99394 2.58507 328 ft 61 kts 85°
2026-05-05 10:21 48.99418 2.58923 329 ft 21 kts 85°
2026-05-05 10:21 48.99432 2.59130 327 ft 18 kts 76°
2026-05-05 10:21 48.99484 2.59315 327 ft 19 kts 63°
2026-05-05 10:22 48.99542 2.59503 328 ft 19 kts 65°
2026-05-05 10:22 48.99591 2.59655 327 ft 10 kts 49°
2026-05-05 10:22 48.99652 2.59694 327 ft 10 kts
2026-05-05 10:22 48.99728 2.59685 328 ft 11 kts 354°
2026-05-05 10:23 48.99812 2.59674 330 ft 12 kts 355°
2026-05-05 10:23 48.99904 2.59665 330 ft 13 kts 355°
2026-05-05 10:23 48.99999 2.59655 330 ft 13 kts 355°
2026-05-05 10:23 49.00057 2.59639 331 ft 6 kts 328°
2026-05-05 10:24 49.00077 2.59571 332 ft 9 kts 276°
2026-05-05 10:24 49.00073 2.59464 332 ft 11 kts 262°
2026-05-05 10:24 49.00065 2.59334 334 ft 12 kts 265°
2026-05-05 10:24 49.00058 2.59196 334 ft 13 kts 264°
2026-05-05 10:25 49.00050 2.59046 334 ft 15 kts 265°
2026-05-05 10:25 49.00042 2.58895 334 ft 11 kts 264°
2026-05-05 10:25 49.00038 2.58796 334 ft 6 kts 287°
2026-05-05 10:25 49.00085 2.58773 334 ft 9 kts 357°
2026-05-05 10:26 49.00158 2.58765 334 ft 10 kts 355°
2026-05-05 10:26 49.00201 2.58757 334 ft 3 kts 330°
2026-05-05 10:26 49.00212 2.58715 334 ft 5 kts 269°
2026-05-05 10:26 49.00209 2.58664 334 ft 3 kts 262°
2026-05-05 10:27 49.00206 2.58636 334 ft 0 kts 262°
2026-05-05 10:27 49.00206 2.58630 334 ft 0 kts 262°